[[{"header":{"parameterUnit":"m.s-1","parameterCategory":1,"la1":30.2991,"la2":30.254,"lo1":-89.0895,"lo2":-89.0444,"dy":0.0017,"dx":0.0017,"nx":28,"ny":28,"refTime":"2024-05-18T09:00:00:Z","depth":0,"parameterNumber":2,"parameterNumberName":"U-component_of_WINDS"},"data":[0,0,0,0,0,0,0,0,0,0,0,0,0,0,0,0,0,0,0,0,0,0,0,0,0,0,0,0,0,0,0,0,0,0,0,0,0,0,0,0,0,0,0,0,0,0,0,0,0,0,0,0,0,0,0,0,0,0,-0.2323,-0.2323,0,-0.233,-0.233,-0.233,-0.2326,-0.2326,-0.2325,-0.2325,-0.2332,-0.2332,-0.2333,0,0,0,0,0,0,0,0,0,0,0,0,0,-0.2307,-0.2307,-0.2323,-0.2323,-0.2323,-0.233,-0.233,-0.233,-0.2326,-0.2326,-0.2325,-0.2325,-0.2332,-0.2332,-0.2333,0,0,0,0,0,0,0,0,0,0,0,0,0,-0.2314,-0.2308,-0.2323,-0.2322,-0.2322,-0.233,-0.233,-0.233,-0.2326,-0.2326,-0.2325,-0.2325,-0.2332,-0.2332,-0.2333,-0.2342,0,0,-0.2335,-0.2335,0,0,0,0,0,0,0,0,-0.2314,-0.2314,-0.2322,-0.2322,-0.2322,-0.2327,-0.2327,-0.2334,-0.2326,-0.2324,-0.2325,-0.2325,-0.233,-0.2331,-0.2333,-0.2342,-0.2343,-0.2335,-0.2335,-0.2335,-0.2335,0,0,0,0,0,0,0,-0.2313,-0.2314,-0.2325,-0.2322,-0.2322,-0.2321,-0.2322,-0.2328,-0.2329,-0.2324,-0.2324,-0.2325,-0.233,-0.2332,-0.2333,-0.2343,-0.2335,-0.2335,-0.2335,-0.2336,-0.2361,-0.2361,0,0,0,0,0,0,-0.2313,-0.2314,-0.2325,-0.2326,-0.2317,-0.2322,-0.2322,-0.2325,-0.2329,-0.2329,-0.2325,-0.2325,-0.2332,-0.2332,-0.2333,-0.2345,-0.2335,-0.2336,-0.2336,-0.236,-0.2361,-0.2361,0,0,0,0,0,0,-0.2312,-0.2314,-0.2325,-0.232,-0.2321,-0.2322,-0.2326,-0.2326,-0.2328,-0.2329,-0.233,-0.2327,-0.2332,-0.2333,-0.234,-0.2345,-0.2336,-0.2336,-0.236,-0.236,-0.2361,-0.2367,0,0,0,0,0,0,-0.2312,-0.2314,-0.2317,-0.232,-0.2321,-0.2331,-0.2326,-0.2326,-0.2329,-0.2328,-0.2331,-0.2332,-0.2331,-0.2339,-0.2341,-0.2345,-0.2337,-0.236,-0.236,-0.2361,-0.2367,-0.2368,-0.2369,0,0,0,0,0,-0.2311,-0.2318,-0.2317,-0.2318,-0.2325,-0.2332,-0.2333,-0.2332,-0.2329,-0.2332,-0.2334,-0.2331,-0.2344,-0.234,-0.2342,-0.2347,-0.2359,-0.236,-0.2361,-0.2366,-0.2368,-0.2369,0,0,0,0,0,0,-0.2315,-0.2318,-0.2317,-0.2325,-0.2328,-0.2331,-0.2335,-0.2334,-0.2338,-0.2337,-0.2337,-0.2337,-0.2345,-0.2347,-0.2342,-0.2356,-0.2351,-0.2352,-0.2355,-0.2356,-0.2358,-0.2357,-0.2337,0,0,0,0,0,-0.2317,-0.2322,-0.2324,-0.2331,-0.2333,-0.2334,-0.2336,-0.2336,-0.2339,-0.234,-0.2342,-0.2345,-0.235,-0.2353,-0.2358,-0.2367,-0.2368,-0.2371,-0.2372,-0.2373,-0.2374,-0.238,-0.2382,-0.2364,-0.2364,-0.2364,0,0,-0.2321,-0.2323,-0.2326,-0.2332,-0.2334,-0.234,-0.2335,-0.234,-0.2344,-0.2341,-0.2349,-0.235,-0.2354,-0.2362,-0.2366,-0.2364,-0.238,-0.2374,-0.2375,-0.2376,-0.2381,-0.2383,-0.2384,-0.2364,-0.2364,-0.2364,0,0,-0.2331,-0.2333,-0.2339,-0.2341,-0.2345,-0.2346,-0.2347,-0.2351,-0.2352,-0.2359,-0.2357,-0.2362,-0.237,-0.2373,-0.2375,-0.2387,-0.2386,-0.2389,-0.2395,-0.2401,-0.2402,-0.2403,-0.2408,-0.241,-0.239,-0.239,-0.239,0,-0.2335,-0.2342,-0.2342,-0.2348,-0.2351,-0.2349,-0.2355,-0.2358,-0.2363,-0.2365,-0.2362,-0.2373,-0.2375,-0.2385,-0.2388,-0.239,-0.2392,-0.2388,-0.2402,-0.2403,-0.2404,-0.2409,-0.2411,-0.239,-0.239,-0.239,-0.239,0,-0.2348,-0.2353,-0.2357,-0.2363,-0.2366,-0.2372,-0.2373,-0.2377,-0.2377,-0.2378,-0.2386,-0.2389,-0.2394,-0.2396,-0.2396,-0.2406,-0.2405,-0.2402,-0.2397,-0.2407,-0.2411,-0.2412,-0.2391,-0.2391,-0.2391,-0.239,0,0,-0.2359,-0.2365,-0.2367,-0.2369,-0.2374,-0.2378,-0.2384,-0.239,-0.2393,-0.2397,-0.2403,-0.241,-0.2408,-0.2411,-0.2411,-0.2416,-0.2426,-0.2413,-0.2413,-0.2415,-0.2438,-0.244,-0.2442,-0.2425,-0.2425,-0.2425,-0.2438,0,-0.2369,-0.238,-0.2381,-0.2391,-0.2397,-0.2395,-0.2401,-0.2404,-0.2406,-0.2411,-0.2413,-0.2418,-0.2415,-0.2417,-0.2421,-0.2423,-0.243,-0.2423,-0.243,-0.243,-0.2429,-0.2444,-0.2446,-0.2458,-0.2439,-0.244,-0.244,0,-0.2382,-0.2387,-0.2398,-0.2402,-0.2405,-0.241,-0.2415,-0.242,-0.2424,-0.2425,-0.2429,-0.2428,-0.2435,-0.243,-0.2441,-0.2435,-0.2439,-0.244,-0.2441,-0.2441,-0.2436,-0.2445,-0.2461,-0.2463,-0.2442,-0.2442,-0.2442,0,-0.239,-0.2399,-0.2407,-0.2409,-0.2415,-0.2418,-0.2421,-0.2425,-0.2428,-0.2433,-0.2436,-0.2441,-0.2445,-0.2449,-0.245,-0.2447,-0.2461,-0.2456,-0.2462,-0.2462,-0.2465,-0.2464,-0.2482,-0.2467,-0.2467,-0.2467,-0.2466,0,-0.2402,-0.2408,-0.2411,-0.2416,-0.2424,-0.2424,-0.2432,-0.2434,-0.2438,-0.2444,-0.2443,-0.2448,-0.2449,-0.2455,-0.2456,-0.2465,-0.2466,-0.2467,-0.2467,-0.2467,-0.2467,-0.2469,-0.2469,-0.2467,-0.2467,-0.2467,-0.2467,0,-0.2412,-0.2414,-0.2422,-0.2427,-0.2428,-0.2434,-0.2438,-0.2443,-0.2444,-0.2452,-0.2453,-0.2456,-0.2463,-0.2465,-0.2472,-0.2473,-0.2483,-0.2483,-0.2482,-0.2482,-0.2488,-0.2488,-0.2508,-0.251,-0.2493,-0.2493,-0.2494,0,-0.2419,-0.2424,-0.243,-0.2433,-0.2436,-0.2442,-0.2446,-0.2447,-0.2451,-0.2457,-0.2461,-0.2468,-0.2473,-0.2484,-0.2487,-0.2493,-0.2493,-0.25,-0.2494,-0.2494,-0.2494,-0.2493,-0.2494,-0.2501,-0.2501,-0.2501,-0.2501,0,-0.2432,-0.2432,-0.2438,-0.2444,-0.2449,-0.2453,-0.2458,-0.2461,-0.2463,-0.2468,-0.2475,-0.2479,-0.2488,-0.2494,-0.2501,-0.2504,-0.2503,-0.2503,-0.2505,-0.2505,-0.2504,-0.2505,-0.2485,-0.2502,-0.2502,-0.2502,-0.2502,-0.2502,-0.2441,-0.2446,-0.245,-0.2457,-0.246,-0.2465,-0.247,-0.2473,-0.2479,-0.2486,-0.2486,-0.2494,-0.2499,-0.2508,-0.2511,-0.2517,-0.2515,-0.2518,-0.2519,-0.2519,-0.252,-0.2503,-0.2518,-0.2518,-0.2518,-0.2518,-0.2518,0,-0.2454,-0.2457,-0.2463,-0.2469,-0.2475,-0.2474,-0.2479,-0.2483,-0.249,-0.2495,-0.2501,-0.2509,-0.2516,-0.252,-0.2527,-0.2531,-0.2531,-0.2533,-0.2533,-0.2533,-0.2521,-0.2519,-0.2533,-0.2533,-0.2533,-0.2533,-0.2533,-0.2533,-0.2461,-0.247,-0.2471,-0.2482,-0.2485,-0.2493,-0.2496,-0.25,-0.2504,-0.2514,-0.2519,-0.2522,-0.2527,-0.2534,-0.2541,-0.2542,-0.2544,-0.2547,-0.2547,-0.2536,-0.2534,-0.2533,-0.2531,-0.2547,-0.2547,-0.2559,-0.2559,-0.2559]},{"header":{"parameterUnit":"m.s-1","parameterCategory":1,"la1":30.2991,"la2":30.254,"lo1":-89.0895,"lo2":-89.0444,"dy":0.0017,"dx":0.0017,"nx":28,"ny":28,"refTime":"2024-05-18T09:00:00:Z","depth":0,"parameterNumber":3,"parameterNumberName":"V-component_of_WINDS"},"data":[0,0,0,0,0,0,0,0,0,0,0,0,0,0,0,0,0,0,0,0,0,0,0,0,0,0,0,0,0,0,0,0,0,0,0,0,0,0,0,0,0,0,0,0,0,0,0,0,0,0,0,0,0,0,0,0,0,0,1.7158,1.7157,0,1.711,1.7109,1.7108,1.7086,1.7086,1.7086,1.7086,1.7032,1.703,1.7029,0,0,0,0,0,0,0,0,0,0,0,0,0,1.7226,1.7225,1.7158,1.7157,1.7157,1.711,1.7109,1.7108,1.7086,1.7086,1.7086,1.7086,1.7032,1.703,1.7028,0,0,0,0,0,0,0,0,0,0,0,0,0,1.7189,1.7224,1.7158,1.714,1.7138,1.711,1.7109,1.7108,1.7086,1.7086,1.7086,1.7086,1.7033,1.703,1.7028,1.7012,0,0,1.7021,1.702,0,0,0,0,0,0,0,0,1.7191,1.7186,1.7143,1.7141,1.7139,1.7104,1.7113,1.7076,1.7086,1.7106,1.7086,1.7087,1.7055,1.7051,1.7042,1.701,1.7008,1.7021,1.702,1.7019,1.7018,0,0,0,0,0,0,0,1.7193,1.7188,1.7139,1.7143,1.714,1.7133,1.7128,1.7106,1.708,1.7104,1.7102,1.7097,1.7054,1.7044,1.704,1.7007,1.7021,1.7019,1.7018,1.7017,1.6958,1.6958,0,0,0,0,0,0,1.7199,1.719,1.714,1.7137,1.7166,1.7131,1.7126,1.7115,1.7081,1.7076,1.7097,1.7096,1.7048,1.7043,1.7038,1.7017,1.7019,1.7017,1.7015,1.6959,1.6958,1.6958,0,0,0,0,0,0,1.7201,1.7195,1.7142,1.7163,1.7156,1.713,1.7118,1.7114,1.7104,1.7076,1.707,1.7092,1.7048,1.7041,1.7019,1.7015,1.7016,1.7014,1.6959,1.6958,1.6958,1.6975,0,0,0,0,0,0,1.7203,1.7196,1.7191,1.7163,1.7155,1.7126,1.7118,1.7113,1.7101,1.7099,1.7069,1.7064,1.7047,1.7023,1.7017,1.7012,1.7012,1.6959,1.6959,1.6958,1.6975,1.6976,1.6976,0,0,0,0,0,1.7206,1.7197,1.7191,1.7185,1.7149,1.7125,1.712,1.7103,1.7101,1.7095,1.7076,1.7065,1.7016,1.7021,1.7014,1.7008,1.6959,1.6959,1.6958,1.6975,1.6975,1.6976,0,0,0,0,0,0,1.7223,1.7193,1.7186,1.7168,1.715,1.7122,1.7114,1.7104,1.7084,1.7084,1.7061,1.7054,1.7034,1.7018,1.7024,1.699,1.6987,1.6985,1.7001,1.7002,1.7002,1.7006,1.701,0,0,0,0,0,1.7225,1.721,1.7184,1.7171,1.7162,1.714,1.7129,1.7117,1.7096,1.7088,1.7067,1.7046,1.7026,1.7013,1.6993,1.6972,1.6965,1.6965,1.6966,1.6966,1.6965,1.6952,1.6952,1.6957,1.6957,1.6957,0,0,1.7228,1.721,1.7202,1.7174,1.7158,1.7142,1.7133,1.7116,1.7104,1.7084,1.7063,1.7047,1.7021,1.7,1.699,1.6987,1.6962,1.6966,1.6966,1.6965,1.6952,1.6951,1.6951,1.6956,1.6956,1.6957,0,0,1.7227,1.7212,1.7199,1.7184,1.7161,1.7146,1.7143,1.7116,1.7105,1.7084,1.7069,1.7052,1.7018,1.7,1.6987,1.6978,1.6967,1.6972,1.6975,1.6963,1.6962,1.6962,1.6958,1.6957,1.6971,1.6971,1.6971,0,1.7233,1.721,1.7193,1.7178,1.7165,1.7149,1.7135,1.712,1.709,1.7081,1.7079,1.7036,1.7017,1.6992,1.699,1.6979,1.6974,1.6975,1.6964,1.6963,1.6963,1.6959,1.6957,1.6971,1.6971,1.6971,1.6971,0,1.722,1.7204,1.7196,1.717,1.7156,1.7141,1.712,1.7108,1.7097,1.7082,1.7059,1.7037,1.7012,1.7004,1.6993,1.6976,1.6975,1.6969,1.6964,1.6963,1.6959,1.6958,1.6972,1.6972,1.6972,1.6972,0,0,1.7227,1.7193,1.719,1.7178,1.7151,1.7137,1.7121,1.7098,1.7088,1.7068,1.7052,1.7024,1.7018,1.7002,1.6988,1.6978,1.6972,1.6972,1.6971,1.6973,1.6951,1.6956,1.6955,1.6964,1.6964,1.6963,1.6953,0,1.7222,1.7194,1.7178,1.7156,1.714,1.7124,1.7109,1.709,1.7075,1.7058,1.7041,1.7021,1.7015,1.7005,1.6994,1.6975,1.6967,1.6975,1.6948,1.6947,1.6955,1.6953,1.6958,1.695,1.6951,1.6951,1.6951,0,1.7212,1.7194,1.7171,1.7146,1.7138,1.7126,1.7103,1.7088,1.7065,1.7055,1.7038,1.7024,1.7004,1.7002,1.6973,1.6979,1.6967,1.6956,1.6955,1.6951,1.6949,1.6949,1.6946,1.6945,1.6948,1.6949,1.6949,0,1.722,1.7189,1.7172,1.7162,1.7132,1.7123,1.711,1.7087,1.7075,1.7054,1.7045,1.7022,1.7009,1.699,1.697,1.697,1.6943,1.6939,1.6933,1.6933,1.6928,1.6928,1.6923,1.692,1.692,1.692,1.692,0,1.7215,1.7201,1.7175,1.7164,1.7148,1.7129,1.7112,1.7097,1.7078,1.7062,1.7046,1.7031,1.7005,1.6987,1.697,1.6949,1.6943,1.6933,1.6929,1.6935,1.6936,1.6926,1.6926,1.692,1.692,1.692,1.692,0,1.7221,1.7203,1.7183,1.7156,1.7149,1.7138,1.7114,1.7102,1.7086,1.7067,1.7061,1.7036,1.7013,1.6991,1.696,1.6949,1.6928,1.6922,1.6936,1.6934,1.6929,1.6929,1.6917,1.6914,1.6914,1.6914,1.6914,0,1.7219,1.7209,1.7181,1.7171,1.7158,1.7141,1.7128,1.7108,1.7095,1.7068,1.7059,1.7036,1.7016,1.698,1.6958,1.6934,1.6927,1.6925,1.6924,1.693,1.6927,1.6928,1.6926,1.6925,1.6925,1.6925,1.6925,0,1.7218,1.721,1.7193,1.7172,1.7158,1.714,1.7122,1.7114,1.709,1.7075,1.7053,1.7038,1.7007,1.6984,1.6957,1.6941,1.6929,1.6926,1.6923,1.6929,1.6937,1.6932,1.6938,1.6926,1.6926,1.6926,1.6926,1.6926,1.722,1.7209,1.7189,1.717,1.7154,1.7138,1.7125,1.7108,1.709,1.7065,1.7053,1.7031,1.7007,1.697,1.6954,1.6935,1.6932,1.6928,1.6927,1.6926,1.6927,1.6941,1.693,1.693,1.693,1.693,1.693,0,1.7217,1.7203,1.7186,1.7162,1.7147,1.7138,1.7118,1.7105,1.7086,1.7066,1.7047,1.7021,1.6998,1.6974,1.6949,1.6938,1.6932,1.6932,1.6933,1.6929,1.6932,1.6937,1.6938,1.6938,1.6938,1.6938,1.6938,1.6938,1.7214,1.7196,1.7186,1.7159,1.7144,1.7124,1.7112,1.7096,1.708,1.7052,1.7034,1.7019,1.6996,1.697,1.6948,1.6941,1.6932,1.6935,1.6926,1.6929,1.6929,1.6928,1.6933,1.6933,1.6933,1.6925,1.6925,1.6925]}]]